Find Starlink 31667

NORAD ID: 59609 Int'l Des: 2024-080 Owner: SPXS Country: US Constellation: starlink operational
LEOCIRCULAR

实时位置

正在加载3D地球...

关于 Starlink 31667

正在加载描述...

即将过境

Passes for default location (London). Set your location on the main map for personalized predictions.

高度历史

Loading altitude history...

两行轨道根数

1 59609U 24080J 26127.18379654 .00001193 00000-0 52873-4 0 9997
2 59609 43.0024 63.6616 0000986 280.3763 79.6978 15.27586983113526
Epoch: May 7, 2026 • Age: 4 hours

当前状态

高度 483.3 km
速度 7.63 km/s
星下点 -3.14°S, 104.42°W
发射日期 Apr 28, 2024
运行时间 2 years
类型 internet

技术详情

分类 Payload
质量 730.00 kg
干质量 700.00 kg
总质量 730.00 kg
长度 0.30 m
直径 4.10 m
跨度 29.00 m
形状 Box + pan
制造商 SPXS
平台类型 Starlink V2M
阶段状态 In Orbit
所有者/国家 SPXS/US

Most Searched